Quincy Muni, Quincy, FL, FL

5:43 AM EDT on April 25, 2018 (GMT -0400)
Quincy Muni, Quincy, FL

Weather History for K2J9 - May, 2014

Change the Weather History Date:

Tuesday, May 6, 2014

  Actual Average (KTLH) Record (KTLH)
Temperature  
Mean Temperature 73 °F 72 °F  
Max Temperature 87 °F 85 °F 94 °F (1955)
Min Temperature 59 °F 58 °F 43 °F (1973)
Degree Days  
Heating Degree Days 0    
Month to date heating degree days  
Since 1 July heating degree days  
Cooling Degree Days 8    
Month to date cooling degree days  
Year to date cooling degree days  
Growing Degree Days 23 (Base 50)    
Moisture  
Dew Point 57 °F    
Average Humidity 60    
Maximum Humidity 100    
Minimum Humidity 33    
Precipitation  
Precipitation 0.00 in 0.09 in 3.60 in (1956)
Month to date precipitation 0.51  
Year to date precipitation 18.70  
Sea Level Pressure  
Sea Level Pressure 30.03 in    
Wind  
Wind Speed 2 mph (SW)    
Max Wind Speed 9 mph    
Max Gust Speed -    
Visibility 10 miles    
Events      
T = Trace of Precipitation, MM = Missing Value Source: NWS Daily Summary

Daily Weather History Graph

Daily Weather History Graph

Search for Another Location

Airport or City:

Astronomy

May. 06, 2014 Rise Set
Actual Time 6:50 AM EDT 8:19 PM EDT
Civil Twilight 6:24 AM EDT 8:45 PM EDT
Nautical Twilight 5:53 AM EDT 9:16 PM EDT
Astronomical Twilight 5:21 AM EDT 9:49 PM EDT
Moon 1:00 PM EDT (5/6) 1:42 AM EDT (5/6)
Length of Visible Light 14h 21m
Length of Day
13h 29m
Waxing Crescent, 46% of the Moon is Illuminated
May 6
Waxing Crescent
May 6
First Quarter
May 14
Full
May 21
Last Quarter
May 28
New

Hourly Weather History & Observations

Time (EDT) Temp. Heat Index Dew Point Humidity Pressure Visibility Wind Dir Wind Speed Gust Speed Precip Events Conditions
12:15 AM 64.4 °F - 57.2 °F 77% 30.04 in 10.0 mi Calm Calm - N/A   Clear
12:35 AM 62.6 °F - 57.2 °F 82% 30.03 in 10.0 mi Calm Calm - N/A   Clear
12:55 AM 62.6 °F - 57.2 °F 82% 30.04 in 10.0 mi Calm Calm - N/A   Clear
1:15 AM 62.6 °F - 57.2 °F 82% 30.03 in 10.0 mi Calm Calm - N/A   Clear
1:35 AM 60.8 °F - 57.2 °F 88% 30.03 in 10.0 mi Calm Calm - N/A   Scattered Clouds
1:55 AM 60.8 °F - 57.2 °F 88% 30.02 in 10.0 mi Calm Calm - N/A   Mostly Cloudy
2:15 AM 60.8 °F - 57.2 °F 88% 30.02 in 10.0 mi Calm Calm - N/A   Overcast
2:35 AM 59.0 °F - 57.2 °F 94% 30.02 in 10.0 mi Calm Calm - N/A   Mostly Cloudy
2:55 AM 59.0 °F - 57.2 °F 94% 30.02 in 10.0 mi Calm Calm - N/A   Overcast
3:15 AM 59.0 °F - 57.2 °F 94% 30.01 in 9.0 mi Calm Calm - N/A   Overcast
3:35 AM 59.0 °F - 57.2 °F 94% 30.01 in 10.0 mi Calm Calm - N/A   Overcast
7:55 AM 62.6 °F - 62.6 °F 100% 30.06 in 0.2 mi Calm Calm - N/A   Overcast
8:15 AM 62.6 °F - 62.6 °F 100% 30.06 in 0.2 mi Calm Calm - N/A   Overcast
8:35 AM 64.4 °F - 64.4 °F 100% 30.07 in 5.0 mi Calm Calm - N/A   Mostly Cloudy
9:15 AM 69.8 °F - 64.4 °F 83% 30.08 in 10.0 mi Calm Calm - N/A   Clear
9:55 AM 73.4 °F - 60.8 °F 65% 30.08 in 10.0 mi WNW 4.6 mph - N/A   Clear
10:15 AM 75.2 °F - 59.0 °F 57% 30.08 in 10.0 mi Calm Calm - N/A   Clear
10:35 AM 75.2 °F - 59.0 °F 57% 30.08 in 10.0 mi West 5.8 mph - N/A   Clear
10:55 AM 77.0 °F - 60.8 °F 57% 30.08 in 10.0 mi Calm Calm - N/A   Clear
11:15 AM 77.0 °F - 57.2 °F 50% 30.08 in 10.0 mi Calm Calm - N/A   Clear
11:35 AM 77.0 °F - 57.2 °F 50% 30.08 in 10.0 mi Calm Calm - N/A   Clear
11:55 AM 80.6 °F 80.8 °F 57.2 °F 45% 30.08 in 10.0 mi West 5.8 mph - N/A   Clear
12:15 PM 80.6 °F 80.5 °F 55.4 °F 42% 30.07 in 10.0 mi West 6.9 mph - N/A   Clear
12:35 PM 82.4 °F 81.4 °F 53.6 °F 37% 30.07 in 10.0 mi SSW 3.5 mph - N/A   Clear
12:55 PM 82.4 °F 81.7 °F 55.4 °F 39% 30.06 in 10.0 mi WSW 5.8 mph - N/A   Clear
1:15 PM 82.4 °F 81.7 °F 55.4 °F 39% 30.05 in 10.0 mi SW 6.9 mph - N/A   Clear
1:35 PM 84.2 °F - 51.8 °F 33% 30.04 in 10.0 mi South 5.8 mph - N/A   Clear
2:55 PM 86.0 °F 84.2 °F 53.6 °F 33% 30.02 in 10.0 mi SW 8.1 mph - N/A   Clear
4:15 PM 86.0 °F 84.2 °F 53.6 °F 33% 29.99 in 10.0 mi South 8.1 mph - N/A   Clear
4:35 PM 86.0 °F 84.2 °F 53.6 °F 33% 29.99 in 10.0 mi South 5.8 mph - N/A   Clear
4:55 PM 87.8 °F 86.1 °F 55.4 °F 33% 29.98 in 10.0 mi South 5.8 mph - N/A   Clear
5:15 PM 87.8 °F 86.1 °F 55.4 °F 33% 29.98 in 10.0 mi South 9.2 mph - N/A   Clear
5:35 PM 86.0 °F 84.2 °F 53.6 °F 33% 29.98 in 10.0 mi SW 5.8 mph - N/A   Clear
5:55 PM 86.0 °F 84.5 °F 55.4 °F 35% 29.98 in 10.0 mi South 5.8 mph - N/A   Clear
6:15 PM 86.0 °F 84.2 °F 53.6 °F 33% 29.98 in 10.0 mi SW 6.9 mph - N/A   Clear
6:35 PM 86.0 °F 84.5 °F 55.4 °F 35% 29.99 in 10.0 mi South 8.1 mph - N/A   Clear
6:55 PM 84.2 °F 83.0 °F 55.4 °F 37% 29.99 in 10.0 mi SW 5.8 mph - N/A   Clear
7:15 PM 82.4 °F 81.4 °F 53.6 °F 37% 29.99 in 10.0 mi WSW 9.2 mph - N/A   Clear
7:35 PM 82.4 °F 81.4 °F 53.6 °F 37% 29.99 in 10.0 mi SW 6.9 mph - N/A   Clear
7:55 PM 80.6 °F 80.5 °F 55.4 °F 42% 30.00 in 10.0 mi SW 5.8 mph - N/A   Clear
8:15 PM 77.0 °F - 55.4 °F 47% 30.00 in 10.0 mi SW 4.6 mph - N/A   Clear
8:35 PM 77.0 °F - 55.4 °F 47% 30.01 in 10.0 mi SW 5.8 mph - N/A   Clear
8:55 PM 75.2 °F - 55.4 °F 50% 30.01 in 10.0 mi SW 5.8 mph - N/A   Clear
9:15 PM 73.4 °F - 53.6 °F 50% 30.02 in 10.0 mi Calm Calm - N/A   Clear
9:35 PM 73.4 °F - 53.6 °F 50% 30.02 in 10.0 mi SW 5.8 mph - N/A   Partly Cloudy
9:55 PM 71.6 °F - 53.6 °F 53% 30.03 in 10.0 mi WSW 4.6 mph - N/A   Clear
10:15 PM 69.8 °F - 55.4 °F 60% 30.03 in 10.0 mi Calm Calm - N/A   Clear
10:35 PM 66.2 °F - 57.2 °F 73% 30.04 in 10.0 mi Calm Calm - N/A   Clear
10:55 PM 64.4 °F - 57.2 °F 77% 30.05 in 10.0 mi Calm Calm - N/A   Clear
11:15 PM 64.4 °F - 57.2 °F 77% 30.05 in 10.0 mi Calm Calm - N/A   Clear
11:35 PM 62.6 °F - 57.2 °F 82% 30.05 in 10.0 mi Calm Calm - N/A   Clear
11:55 PM 62.6 °F - 57.2 °F 82% 30.06 in 10.0 mi Calm Calm - N/A   Clear